OneWeb SL0145

operational
NORAD ID: 47260 Int'l Des: 2020-100 Owner: ONEWEB Country: UK Constellation: oneweb
LEOCIRCULARPOLARONEWEB_TYPE

About OneWeb SL0145

Description loading...

Live Position

Loading 3D Globe...

Upcoming Passes

Altitude History

Altitude vs Time

uPlot chart will show altitude changes over time

Two-Line Element Set

1 47260U 20100C 26035.44063744 -.00000762 00000-0 -21539-2 0 9999
2 47260 87.8947 16.9891 0001800 80.4187 279.7145 13.12445071247315
Epoch: Feb 4, 2026 • Age: 19 hours

Current Status

Altitude 1237.1 km
Velocity 7.23 km/s
Sub-Earth Point -56.82°S, 26.49°W
Launch Date Dec 18, 2020
Age 5.1 years
Type internet

Technical Details

Classification Payload
Mass 148.00 kg
Dry Mass 140.00 kg
Total Mass 148.00 kg
Length 1.30 m
Diameter 1.00 m
Span 5.00 m
Shape Trapezoid+2 pan
Manufacturer ONEWUS
Bus Type ARROW
Phase Status In Orbit
Owner/State ONEWEB/UK

Large Constellations

Loading constellations...